Weather in Sosnoviy Bor

Russia / Saint-Petersburg and Leningrad Oblast     59°54′15″N   29°05′31″E
temp.,
°C
wind,
m/s
gust,
m/s
humid.,
%
clouds,
%
prec.,
mm/h
press.,
hPa
HPBL,
m
22 april, thu
thu2200:00+2ese2291100 0.0 100366
03:00+3se3390100 0.0 100241
06:00+3sse34915 0.0 100248
09:00+4ssw44855 0.0 100334
12:00+5nw227299 0.0 100427
15:00+4nnw228122 0.0 100544
18:00+5ene227897 0.0 100537
21:00+5sse2382100 0.5 100522
23 april, fri
fri2300:00+4n1194100 1.8 100413
03:00+3se339649 2.2 100323
06:00+3s699194 0.1 1003140
09:00+3ssw68869 0.1 1004157
12:00+4s5678100 0.1 1005101
15:00+4sse5671100 0.1 100577
18:00+4ssw578199 0.6 100594
21:00+4s678024 0.9 100593
24 april, sat
sat2400:00+2sw569072 0.0 1006205
03:00+1sw459699 0.1 1006246
06:00+1s568862 0.0 1006439
09:000s4484100 0.1 1007555
12:00+1s1177100 0.1 1007212
15:00+1n227798 0.1 1007164
18:00+2nne227524 0.0 1007130
21:00+2nnw33778 0.0 1006100
25 april, sun
sun2500:00+2wnw337585 0.0 1006124
03:00+1wnw2389100 0.2 1005185
06:000sw3399100 1.1 1004132
09:00+1sw3399100 1.5 1004150
12:00+1sw229783 0.2 1005153
15:00+1nnw118731 0.2 1006146
18:00+2n22835 0.1 100771
21:00+2nnw11805 0.1 100711
26 april, mon
mon2600:00+2nnw118052 0.0 100813
03:00+2wnw2278100 0.0 100822
06:00+2w4582100 0.0 1008114
09:00+2w6791100 0.0 1009295
12:00+2wsw6888100 0.0 1010320
15:00+2w7987100 0.0 1010384
18:00+2wsw81197100 0.1 1009435
21:00+2wnw5699100 1.4 1008339